[[{"header":{"parameterUnit":"m.s-1","parameterCategory":1,"la1":30.2991,"la2":30.254,"lo1":-89.0895,"lo2":-89.0444,"dy":0.0017,"dx":0.0017,"nx":28,"ny":28,"refTime":"2023-11-15T09:00:00:Z","depth":0,"parameterNumber":2,"parameterNumberName":"U-component_of_WINDS"},"data":[0,0,0,0,0,0,0,0,0,0,0,0,0,0,0,0,0,0,0,0,0,0,0,0,0,0,0,0,0,0,0,0,0,0,0,0,0,0,0,0,0,0,0,0,0,0,0,0,0,0,0,0,0,0,0,0,0,0,-4.3581,-4.3582,0,-4.3735,-4.3737,-4.3739,-4.3662,-4.3658,-4.3654,-4.365,-4.3816,-4.3824,-4.3832,0,0,0,0,0,0,0,0,0,0,0,0,0,-4.3225,-4.3232,-4.358,-4.3582,-4.3584,-4.3735,-4.3737,-4.3739,-4.3663,-4.3658,-4.3653,-4.3649,-4.3813,-4.3823,-4.3832,0,0,0,0,0,0,0,0,0,0,0,0,0,-4.338,-4.3235,-4.358,-4.3564,-4.3564,-4.3734,-4.3737,-4.374,-4.3664,-4.3658,-4.3652,-4.3646,-4.381,-4.3822,-4.3834,-4.403,0,0,-4.3871,-4.3876,0,0,0,0,0,0,0,0,-4.3371,-4.3393,-4.3565,-4.3566,-4.3566,-4.3673,-4.3672,-4.3837,-4.3666,-4.3627,-4.365,-4.3643,-4.3774,-4.3788,-4.3831,-4.4038,-4.4045,-4.3872,-4.388,-4.3885,-4.3888,0,0,0,0,0,0,0,-4.3361,-4.3386,-4.3642,-4.3567,-4.3568,-4.3552,-4.3567,-4.3703,-4.3732,-4.3629,-4.3624,-4.3643,-4.3773,-4.3819,-4.3834,-4.4047,-4.3872,-4.3883,-4.389,-4.3895,-4.4426,-4.4432,0,0,0,0,0,0,-4.335,-4.3378,-4.3637,-4.3646,-4.3452,-4.3563,-4.358,-4.3645,-4.3731,-4.3738,-4.3648,-4.3639,-4.3801,-4.382,-4.384,-4.4078,-4.3885,-4.3896,-4.3903,-4.4419,-4.4427,-4.4435,0,0,0,0,0,0,-4.3342,-4.3374,-4.3631,-4.3511,-4.3542,-4.3575,-4.3649,-4.3651,-4.3697,-4.3745,-4.375,-4.369,-4.3797,-4.3823,-4.3983,-4.4082,-4.3902,-4.3913,-4.4411,-4.4422,-4.4431,-4.4554,0,0,0,0,0,0,-4.3333,-4.3371,-4.3445,-4.3513,-4.3549,-4.377,-4.3655,-4.3659,-4.3718,-4.3708,-4.3785,-4.3792,-4.3795,-4.3966,-4.3996,-4.4096,-4.3922,-4.4403,-4.4416,-4.4428,-4.4541,-4.4567,-4.4589,0,0,0,0,0,-4.332,-4.3474,-4.3449,-4.3481,-4.3641,-4.3776,-4.3797,-4.3794,-4.3726,-4.3802,-4.3832,-4.379,-4.4066,-4.3983,-4.4016,-4.4121,-4.4396,-4.4412,-4.4427,-4.453,-4.4562,-4.4588,0,0,0,0,0,0,-4.342,-4.3483,-4.3456,-4.3636,-4.3701,-4.3763,-4.3858,-4.3827,-4.3915,-4.3901,-4.3896,-4.3914,-4.4082,-4.4117,-4.4024,-4.4317,-4.4221,-4.4244,-4.4288,-4.4318,-4.4342,-4.4331,-4.3933,0,0,0,0,0,-4.3462,-4.3564,-4.3615,-4.3769,-4.3803,-4.3825,-4.3884,-4.3876,-4.3944,-4.3972,-4.4013,-4.4083,-4.4185,-4.4253,-4.435,-4.4544,-4.4562,-4.4633,-4.4657,-4.4676,-4.4697,-4.4805,-4.4838,-4.4485,-4.4484,-4.4484,0,0,-4.3552,-4.3599,-4.3665,-4.379,-4.384,-4.3948,-4.3849,-4.3967,-4.4049,-4.399,-4.4145,-4.4178,-4.4255,-4.4435,-4.4516,-4.4469,-4.4798,-4.4696,-4.4711,-4.4721,-4.4824,-4.4858,-4.4888,-4.4495,-4.4493,-4.4491,0,0,-4.3772,-4.3816,-4.3951,-4.4002,-4.4077,-4.409,-4.4123,-4.4189,-4.4209,-4.4363,-4.4322,-4.4419,-4.4595,-4.4652,-4.4705,-4.4946,-4.4912,-4.4977,-4.5103,-4.5209,-4.5237,-4.5261,-4.5351,-4.5382,-4.4997,-4.4997,-4.4997,0,-4.3875,-4.4034,-4.4024,-4.4146,-4.4204,-4.4153,-4.4291,-4.4342,-4.4446,-4.4488,-4.4433,-4.4654,-4.4702,-4.4895,-4.4954,-4.4997,-4.5036,-4.497,-4.5233,-4.5258,-4.5281,-4.5366,-4.5399,-4.5005,-4.5004,-4.5003,-4.5003,0,-4.4159,-4.427,-4.437,-4.447,-4.4538,-4.4668,-4.468,-4.475,-4.4736,-4.4756,-4.4916,-4.4971,-4.5079,-4.5123,-4.5112,-4.5316,-4.5285,-4.5232,-4.5136,-4.5322,-4.5402,-4.5435,-4.5016,-4.5013,-4.5011,-4.5009,0,0,-4.4448,-4.454,-4.4577,-4.4622,-4.4701,-4.4788,-4.4916,-4.5019,-4.5082,-4.5155,-4.5264,-4.5413,-4.5365,-4.5424,-4.5418,-4.551,-4.5701,-4.5446,-4.5447,-4.5494,-4.5933,-4.5975,-4.6013,-4.5677,-4.5683,-4.5688,-4.5927,0,-4.4676,-4.4897,-4.4892,-4.5099,-4.5204,-4.5156,-4.5268,-4.533,-4.5352,-4.5445,-4.5469,-4.5577,-4.5503,-4.5539,-4.5627,-4.5659,-4.5789,-4.5641,-4.5782,-4.5787,-4.5767,-4.6054,-4.6098,-4.6322,-4.5958,-4.5963,-4.5967,0,-4.4972,-4.5053,-4.527,-4.5334,-4.5378,-4.5478,-4.5573,-4.5662,-4.5732,-4.5741,-4.5807,-4.5786,-4.5919,-4.5816,-4.6,-4.5899,-4.5956,-4.598,-4.5989,-4.6005,-4.5891,-4.6081,-4.6393,-4.6428,-4.6016,-4.6012,-4.6008,0,-4.5165,-4.5328,-4.548,-4.552,-4.5598,-4.567,-4.5706,-4.5769,-4.5832,-4.5916,-4.5957,-4.6055,-4.611,-4.6188,-4.6196,-4.612,-4.6382,-4.6279,-4.6397,-4.6397,-4.6457,-4.6454,-4.6787,-4.6488,-4.6488,-4.6487,-4.6486,0,-4.5422,-4.5558,-4.5568,-4.5662,-4.5813,-4.5805,-4.5956,-4.5986,-4.6043,-4.6143,-4.6108,-4.6204,-4.6205,-4.6304,-4.631,-4.6464,-4.6488,-4.6502,-4.6503,-4.6507,-4.6506,-4.6547,-4.6533,-4.6496,-4.6494,-4.6492,-4.6491,0,-4.5665,-4.5677,-4.584,-4.5899,-4.5918,-4.6027,-4.6079,-4.617,-4.6187,-4.6315,-4.6344,-4.6374,-4.6487,-4.6501,-4.6635,-4.6639,-4.6825,-4.6807,-4.6801,-4.68,-4.6917,-4.6908,-4.7291,-4.7342,-4.7007,-4.701,-4.7013,0,-4.583,-4.5933,-4.6003,-4.6067,-4.6107,-4.621,-4.6273,-4.627,-4.6338,-4.6425,-4.6506,-4.6616,-4.6704,-4.6889,-4.6924,-4.7026,-4.7013,-4.714,-4.7029,-4.703,-4.7019,-4.7015,-4.7026,-4.7163,-4.7167,-4.717,-4.7172,0,-4.6122,-4.6123,-4.6215,-4.631,-4.6386,-4.6461,-4.6531,-4.6585,-4.6591,-4.667,-4.6785,-4.6853,-4.6988,-4.7099,-4.72,-4.724,-4.721,-4.7206,-4.724,-4.7247,-4.7241,-4.7249,-4.6864,-4.7199,-4.7196,-4.7194,-4.7193,-4.7192,-4.6334,-4.6424,-4.6488,-4.6592,-4.6643,-4.671,-4.6798,-4.6826,-4.6921,-4.703,-4.7022,-4.715,-4.7218,-4.735,-4.7397,-4.7499,-4.7457,-4.7504,-4.7517,-4.753,-4.7543,-4.7221,-4.7517,-4.7516,-4.7515,-4.7515,-4.7514,0,-4.6628,-4.6666,-4.6761,-4.686,-4.6942,-4.6901,-4.6977,-4.705,-4.7162,-4.7227,-4.7314,-4.7447,-4.7554,-4.7596,-4.7702,-4.7776,-4.7764,-4.7804,-4.7801,-4.7811,-4.7573,-4.7535,-4.7811,-4.7811,-4.7811,-4.7811,-4.7811,-4.7811,-4.679,-4.6941,-4.695,-4.7127,-4.7164,-4.7288,-4.7335,-4.7397,-4.7449,-4.7598,-4.7687,-4.7712,-4.7769,-4.7878,-4.7976,-4.7986,-4.8028,-4.8075,-4.8079,-4.7857,-4.7827,-4.7799,-4.7763,-4.8083,-4.8084,-4.8309,-4.8311,-4.8313]},{"header":{"parameterUnit":"m.s-1","parameterCategory":1,"la1":30.2991,"la2":30.254,"lo1":-89.0895,"lo2":-89.0444,"dy":0.0017,"dx":0.0017,"nx":28,"ny":28,"refTime":"2023-11-15T09:00:00:Z","depth":0,"parameterNumber":3,"parameterNumberName":"V-component_of_WINDS"},"data":[0,0,0,0,0,0,0,0,0,0,0,0,0,0,0,0,0,0,0,0,0,0,0,0,0,0,0,0,0,0,0,0,0,0,0,0,0,0,0,0,0,0,0,0,0,0,0,0,0,0,0,0,0,0,0,0,0,0,-5.398,-5.3979,0,-5.3907,-5.3906,-5.3906,-5.3783,-5.378,-5.3778,-5.3776,-5.3704,-5.3704,-5.3704,0,0,0,0,0,0,0,0,0,0,0,0,0,-5.4014,-5.4014,-5.398,-5.3979,-5.3978,-5.3907,-5.3906,-5.3905,-5.3783,-5.378,-5.3777,-5.3775,-5.3704,-5.3704,-5.3704,0,0,0,0,0,0,0,0,0,0,0,0,0,-5.3976,-5.4014,-5.398,-5.3908,-5.3901,-5.3908,-5.3906,-5.3905,-5.3784,-5.378,-5.3777,-5.3774,-5.3703,-5.3704,-5.3704,-5.3775,0,0,-5.3705,-5.3705,0,0,0,0,0,0,0,0,-5.3978,-5.3975,-5.392,-5.3913,-5.3905,-5.385,-5.3892,-5.3862,-5.3785,-5.3828,-5.3776,-5.3772,-5.3755,-5.3751,-5.3745,-5.3772,-5.3769,-5.3705,-5.3705,-5.3705,-5.3706,0,0,0,0,0,0,0,-5.3981,-5.3977,-5.3951,-5.3919,-5.391,-5.388,-5.3871,-5.3885,-5.3812,-5.3824,-5.3815,-5.3808,-5.3751,-5.3745,-5.3743,-5.3767,-5.3705,-5.3705,-5.3706,-5.3706,-5.3847,-5.385,0,0,0,0,0,0,-5.3994,-5.398,-5.3953,-5.3949,-5.3934,-5.3883,-5.3872,-5.3872,-5.3812,-5.3799,-5.3811,-5.3803,-5.3746,-5.3742,-5.374,-5.3817,-5.3705,-5.3706,-5.3706,-5.3843,-5.3848,-5.3851,0,0,0,0,0,0,-5.3995,-5.3993,-5.3956,-5.3962,-5.3955,-5.3886,-5.3886,-5.3872,-5.3866,-5.3802,-5.3788,-5.3819,-5.3743,-5.3739,-5.3767,-5.3813,-5.3706,-5.3706,-5.3839,-5.3845,-5.3849,-5.3975,0,0,0,0,0,0,-5.3997,-5.3994,-5.402,-5.3964,-5.3955,-5.3985,-5.3889,-5.3873,-5.3867,-5.3855,-5.3805,-5.3794,-5.374,-5.3767,-5.3767,-5.3812,-5.3706,-5.3835,-5.3841,-5.3848,-5.3966,-5.3984,-5.3999,0,0,0,0,0,-5.3998,-5.4059,-5.4022,-5.4019,-5.3986,-5.3988,-5.3983,-5.392,-5.3871,-5.3897,-5.3855,-5.3795,-5.3808,-5.3771,-5.377,-5.3815,-5.3831,-5.384,-5.3847,-5.3959,-5.398,-5.3998,0,0,0,0,0,0,-5.4123,-5.405,-5.4008,-5.4052,-5.4027,-5.3967,-5.3997,-5.3945,-5.3933,-5.3923,-5.3845,-5.3835,-5.3872,-5.3847,-5.3806,-5.388,-5.381,-5.3819,-5.3896,-5.3915,-5.3931,-5.3937,-5.3707,0,0,0,0,0,-5.4156,-5.4163,-5.4099,-5.4144,-5.4133,-5.4068,-5.4066,-5.4019,-5.399,-5.3979,-5.3939,-5.3914,-5.3912,-5.3912,-5.3907,-5.3962,-5.3949,-5.3993,-5.4009,-5.4023,-5.4031,-5.4057,-5.4075,-5.3878,-5.3878,-5.3877,0,0,-5.4224,-5.4184,-5.4194,-5.4168,-5.4142,-5.4151,-5.406,-5.4073,-5.4079,-5.3981,-5.4004,-5.3975,-5.3941,-5.3982,-5.3998,-5.3962,-5.4082,-5.4033,-5.4045,-5.4045,-5.4067,-5.4086,-5.4102,-5.3883,-5.3882,-5.3881,0,0,-5.4351,-5.4322,-5.4356,-5.4333,-5.4295,-5.4251,-5.426,-5.4207,-5.4183,-5.4205,-5.4132,-5.4138,-5.4136,-5.4115,-5.4104,-5.4223,-5.4167,-5.4223,-5.4308,-5.4334,-5.435,-5.4363,-5.4405,-5.4421,-5.4231,-5.4232,-5.4232,0,-5.444,-5.445,-5.438,-5.4398,-5.4389,-5.43,-5.4333,-5.4314,-5.4278,-5.4274,-5.4233,-5.4228,-5.4199,-5.4234,-5.4263,-5.4257,-5.4264,-5.4228,-5.4353,-5.4366,-5.4377,-5.4416,-5.4432,-5.4239,-5.4238,-5.4237,-5.4236,0,-5.456,-5.4568,-5.46,-5.4566,-5.456,-5.4586,-5.4521,-5.4523,-5.4477,-5.4438,-5.4461,-5.4423,-5.4408,-5.4413,-5.4368,-5.4441,-5.4419,-5.4367,-5.4295,-5.4404,-5.4439,-5.4454,-5.4249,-5.4246,-5.4244,-5.4242,0,0,-5.4764,-5.4691,-5.4704,-5.4687,-5.4639,-5.4644,-5.4666,-5.465,-5.4653,-5.4631,-5.4647,-5.4647,-5.4599,-5.4586,-5.4539,-5.4562,-5.4657,-5.4507,-5.4505,-5.4535,-5.4733,-5.4772,-5.479,-5.462,-5.4622,-5.4624,-5.4735,0,-5.4881,-5.4913,-5.4851,-5.4898,-5.4904,-5.482,-5.4839,-5.4812,-5.4775,-5.4775,-5.4735,-5.4736,-5.4672,-5.4664,-5.4683,-5.4642,-5.4696,-5.4633,-5.4633,-5.4634,-5.4644,-5.4808,-5.485,-5.4956,-5.4749,-5.4751,-5.4753,0,-5.5021,-5.5005,-5.5053,-5.5001,-5.5001,-5.5019,-5.4999,-5.5001,-5.4968,-5.494,-5.4926,-5.487,-5.4887,-5.4818,-5.4841,-5.4799,-5.4796,-5.4775,-5.4778,-5.4775,-5.47,-5.4809,-5.4989,-5.5005,-5.4774,-5.4772,-5.477,0,-5.5164,-5.5154,-5.5181,-5.5169,-5.511,-5.5125,-5.5101,-5.5065,-5.5059,-5.5042,-5.5037,-5.5023,-5.5015,-5.5006,-5.4947,-5.4902,-5.4976,-5.4903,-5.4952,-5.4954,-5.4971,-5.4971,-5.5152,-5.4971,-5.4971,-5.4971,-5.497,0,-5.53,-5.5333,-5.5244,-5.5261,-5.5294,-5.5223,-5.5258,-5.5226,-5.5194,-5.5203,-5.513,-5.5139,-5.5061,-5.5062,-5.5016,-5.5041,-5.5039,-5.5016,-5.5003,-5.5022,-5.5025,-5.5018,-5.5009,-5.4975,-5.4974,-5.4973,-5.4972,0,-5.5465,-5.5408,-5.5431,-5.5373,-5.5359,-5.5386,-5.5336,-5.5349,-5.5308,-5.532,-5.5319,-5.5254,-5.5251,-5.5191,-5.5177,-5.5145,-5.5189,-5.5163,-5.52,-5.5191,-5.5244,-5.524,-5.5427,-5.5448,-5.5255,-5.5257,-5.5258,0,-5.5556,-5.5578,-5.5523,-5.5523,-5.5502,-5.5504,-5.5497,-5.5428,-5.5425,-5.5388,-5.5406,-5.5397,-5.5386,-5.5386,-5.5338,-5.5325,-5.5298,-5.5364,-5.5296,-5.5313,-5.5298,-5.5297,-5.5298,-5.5379,-5.5381,-5.5383,-5.5385,0,-5.5722,-5.5692,-5.5686,-5.5669,-5.5664,-5.5647,-5.5626,-5.5631,-5.5555,-5.5554,-5.555,-5.5542,-5.5526,-5.5518,-5.5497,-5.5472,-5.5416,-5.5407,-5.5418,-5.5437,-5.5457,-5.5446,-5.5239,-5.5403,-5.5401,-5.54,-5.5399,-5.5398,-5.5852,-5.5867,-5.583,-5.5825,-5.5802,-5.5784,-5.5793,-5.5753,-5.5748,-5.5729,-5.5689,-5.5691,-5.5657,-5.5623,-5.5603,-5.5603,-5.5569,-5.5585,-5.5589,-5.5594,-5.5604,-5.5458,-5.5599,-5.5598,-5.5598,-5.5597,-5.5597,0,-5.6013,-5.5985,-5.5981,-5.5954,-5.595,-5.5897,-5.5871,-5.5871,-5.5874,-5.5847,-5.5838,-5.5833,-5.5824,-5.5775,-5.5761,-5.5771,-5.5745,-5.577,-5.5768,-5.5763,-5.5635,-5.5627,-5.5791,-5.5791,-5.5791,-5.5791,-5.5791,-5.5791,-5.6097,-5.6121,-5.6086,-5.6098,-5.6069,-5.6071,-5.606,-5.6043,-5.6021,-5.6019,-5.6011,-5.5979,-5.5943,-5.5925,-5.5915,-5.59,-5.5898,-5.5932,-5.5909,-5.5791,-5.5772,-5.5754,-5.5746,-5.5932,-5.5932,-5.6036,-5.6037,-5.6038]}]]